Location: C.E.K. Mees Observatory
(42.7003°N, 77.4088°W)
Time: 17:34:27
(UTC-05:00)

N. Korean satellite - Pass Details

Date: 09 October 2017
Orbit: 461 x 513 km, 97.2° (Epoch: 17 December)

Event Time Altitude Azimuth Distance (km) Brightness Sun altitude
Rises 19:47:41 0° 190° (S) 2,566 10.3 -13.8°
Reaches altitude 10° 19:49:58 10° 202° (SSW) 1,680 9.5 -14.3°
Maximum altitude 19:53:08 28° 263° (W) 934 8.8 -14.8°
Drops below altitude 10° 19:56:16 10° 325° (NW) 1,665 9.8 -15.4°
Sets 19:58:31 0° 337° (NNW) 2,540 10.6 -15.8°
